This is the latest recevied weather packets stored in our database for station/object K1BES. If no packets are shown the sender has not sent any weather packets the latest 10 day(s).
| Time | Temp. | Humidity | Pressure | Rain* | Wind** | Luminosity | Snow |
|---|---|---|---|---|---|---|---|
| 1777988053 | 26.11° C | 70% | 1017.3 hPa | 0 mm | - | 464 W/m² | - |
| 1777987748 | 26.11° C | 70% | 1017.2 hPa | 0 mm | - | 439 W/m² | - |
| 1777987446 | 26.11° C | 71% | 1017.3 hPa | 0 mm | - | 424 W/m² | - |
| 1777987143 | 26.11° C | 70% | 1017.4 hPa | 0 mm | - | 400 W/m² | - |
| 1777986840 | 26.11° C | 72% | 1017.2 hPa | 0 mm | - | 247 W/m² | - |
| 1777986538 | 25.56° C | 73% | 1017.3 hPa | 0 mm | - | 322 W/m² | - |
| 1777986235 | 25° C | 74% | 1017.4 hPa | 0 mm | - | 277 W/m² | - |
| 1777985932 | 25° C | 74% | 1017.2 hPa | 0 mm | - | 234 W/m² | - |
| 1777985630 | 24.44° C | 77% | 1017.3 hPa | 0 mm | - | 162 W/m² | - |
| 1777985326 | 23.89° C | 77% | 1017.3 hPa | 0 mm | - | 152 W/m² | - |
| 1777985023 | 23.89° C | 78% | 1017.4 hPa | 0 mm | - | 142 W/m² | - |
| 1777984719 | 23.33° C | 80% | 1017.4 hPa | 0 mm | - | 144 W/m² | - |
| 1777984416 | 22.78° C | 80% | 1017.2 hPa | 0 mm | - | 126 W/m² | - |
| 1777984112 | 22.78° C | 81% | 1017.3 hPa | 0 mm | - | 102 W/m² | - |
| 1777983810 | 22.22° C | 83% | 1017.2 hPa | 0 mm | - | 89 W/m² | - |
| 1777983506 | 22.22° C | 83% | 1017.2 hPa | 0 mm | - | 82 W/m² | - |
| 1777983203 | 21.67° C | 85% | 1017.3 hPa | 0 mm | - | 74 W/m² | - |
| 1777982899 | 21.11° C | 87% | 1017.3 hPa | 0 mm | - | 53 W/m² | - |
| 1777982595 | 20.56° C | 89% | 1017.2 hPa | 0 mm | - | 66 W/m² | - |
| 1777982294 | 20° C | 92% | 1017.1 hPa | 0 mm | - | 60 W/m² | - |
| 1777981992 | 20° C | 92% | 1017 hPa | 0 mm | - | 42 W/m² | - |
| 1777981689 | 19.44° C | 93% | 1016.8 hPa | 0 mm | - | 37 W/m² | - |
| 1777981386 | 19.44° C | 93% | 1016.7 hPa | 0 mm | - | 33 W/m² | - |
| 1777981082 | 18.89° C | 93% | 1016.9 hPa | 0 mm | - | 30 W/m² | - |
| 1777980778 | 18.89° C | 94% | 1016.7 hPa | 0 mm | - | 26 W/m² | - |
* Rain latest hour (hover to see other rain measurements)
** Current wind speed in m/s (hover to see current wind gust speed)